Flag for Canada Weather past 2 weeks in Cumberland County, Nova Scotia, Canada

Now
58 °F

Cool.


Feels Like: 58 °F
Forecast: 45 / 73 °F
Wind: 2 mph from Northeast

Location: Kentville

Current Time: Sep 4, 2015 at 9:09:20 PM

Latest Report: Sep 4, 2015 at 8:00 PM


Visibility: N/A

Pressure: 30.21 "Hg

Humidity: 78%

Dew point: 51 °F

Location of Cumberland CountyLocation

Historic Weather in Cumberland County — Graph

°F

Cumberland County temperature yesterday

Maximum temperature yesterday: 82 °F (at 4:00 PM)
Minimum temperature yesterday: 62 °F (at 2:00 AM)
Average temperature yesterday: 69 °F

Past Weeks' High & Low Weather Summary

 TemperatureHumidityPressure
High84 °F (Aug 22, 2:00 PM)100% (Aug 23, 9:00 AM)30.22 "Hg (Aug 23, 9:00 AM)
Low48 °F (Sep 4, 7:00 AM)43% (Aug 29, 2:00 PM)29.68 "Hg (Aug 31, 8:00 PM)
Average68 °F78%29.99 "Hg
* Reported Aug 20 7:00 PM — Sep 4 7:00 PM, Cumberland County, Weather by CustomWeather, © 2015

Note: Actual official high and low records may vary slightly from our data, if they occured in-between our weather recording intervals... More about our weather records

Advertising

Cumberland County weather history for previous 24 hours

 ConditionsComfort  
Time TempWeatherWind HumidityBarometerVisibility
7:00 PM
Fri, Sep 4
62 °FCool.5 mph63%30.20 "HgN/A
6:00 PM65 °FMild.6 mph60%30.19 "HgN/A
5:00 PM65 °FMild.6 mph58%30.19 "HgN/A
4:00 PM65 °FMild.6 mph57%30.19 "HgN/A
3:00 PM65 °FMild.8 mph57%30.18 "HgN/A
2:00 PM66 °FMild.8 mph52%30.18 "HgN/A
1:00 PM64 °FMild.7 mph57%30.19 "HgN/A
12:00 PM65 °FMild.7 mph53%30.18 "HgN/A
11:00 AM63 °FMild.5 mph62%30.17 "HgN/A
10:00 AM60 °FCool.7 mph75%30.16 "HgN/A
9:00 AM58 °FCool.2 mph81%30.15 "HgN/A
8:00 AM52 °FCool.No wind91%30.13 "HgN/A
7:00 AM48 °FCool.3 mph95%30.09 "HgN/A
6:00 AM49 °FCool.3 mph94%30.07 "HgN/A
5:00 AM50 °FCool.5 mph94%30.06 "HgN/A
4:00 AM51 °FCool.2 mph95%30.04 "HgN/A
3:00 AM52 °FCool.No wind94%30.03 "HgN/A
2:00 AM54 °FCool.No wind93%30.02 "HgN/A
1:00 AM56 °FCool.No wind92%30.00 "HgN/A
12:00 AM59 °FCool.2 mph85%29.98 "HgN/A
11:00 PM
Thu, Sep 3
62 °FCool.6 mph79%29.96 "HgN/A
10:00 PM64 °FMild.6 mph76%29.94 "HgN/A
9:00 PM66 °FMild.6 mph74%29.90 "HgN/A
Weather by CustomWeather, © 2015

See weather overviewHow to use our weather pages